Regional Weather Roundup
Issued by NWS

Home | Current Version | Previous Version | Graphics & Text | Print | Product List | Glossary On
Versions: 1 2 3 4 5 6 7 8 9 10 11 12 13 14 15 16 17 18 19 20 21 22 23 24 25 26 27 28 29 30 31 32 33 34 35 36 37 38 39 40 41 42 43 44 45 46 47 48 49 50
000
ASUS43 KIND 291209
RWRIN

WEATHER ROUNDUP FOR INDIANA
NATIONAL WEATHER SERVICE INDIANAPOLIS IN
800 AM EDT MON JUN 29 2015

NOTE: "FAIR" INDICATES FEW OR NO CLOUDS BELOW 12,000 FEET WITH NO
SIGNIFICANT WEATHER AND/OR OBSTRUCTIONS TO VISIBILITY.

* - STATION DOES NOT REPORT WEATHER SUCH AS PRECIPITATION OR FOG.

+ - STATION NOT QUALITY CONTROLLED BY THE NATIONAL WEATHER SERVICE.
    USE DATA WITH CAUTION...ESPECIALLY DEWPOINT AND RELATIVE
    HUMIDITY OBSERVATIONS.

INZ001>003-010>013-019-020-291300-
NORTHWEST INDIANA

CITY           SKY/WX    TMP DP  RH WIND       PRES   REMARKS
GARY /AIRPORT/ LGT RAIN N/A N/A N/A VRB3      29.81R
KNOX *+        CLOUDY    63  63 100 SE7       29.81R
LA PORTE +     DRIZZLE   65  65 100 E3        29.82S
6HR MIN TEMP:  64; 6HR MAX TEMP:  66; 6HR PCP:  0.04;

MICHIGAN CITY+ RAIN      63  63 100 CALM      29.82S
MONTICELLO +   CLOUDY    63  63 100 E5        29.80R
6HR MIN TEMP:  62; 6HR MAX TEMP:  64; 6HR PCP:  0.09;

RENSSELAER +   CLOUDY    64  64 100 E5        29.80S
VALPARAISO     LGT RAIN  64  62  93 SE6       29.81S
6HR MIN TEMP:  63; 6HR MAX TEMP:  64; 6HR PCP:  0.04;


$$

LMZ046-743>745-291300-
SOUTHERN LAKE MICHIGAN

STATION/POSITION TIME  TEMP    WIND        PRES    WAVE
                       AIR SEA DIR/SP/G            HT
                 (UTC) (F)     (DEG/KT/KT) (MB)    (FT)
BURNS HARBOR     1200   65     160/  6/ 10 1009.8S
MICHIGAN CITY    1200   65     130/  7/  9   N/A
5NW MICH CITY    1200   65 64  160/  6/ 10   N/A     0

$$

INZ004-005-014>016-021>024-291300-
NORTH CENTRAL INDIANA

CITY           SKY/WX    TMP DP  RH WIND       PRES   REMARKS
ELKHART        PTSUNNY   66  59  77 SW5       29.84R
GOSHEN         CLOUDY    66  60  81 S8        29.84R
6HR MIN TEMP:  64; 6HR MAX TEMP:  67; 6HR PCP: TRACE;

LOGANSPORT +   CLOUDY    61  59  94 SE9       29.82S
PERU/GRISSOM   DRIZZLE   63  62  95 E9        29.81S
6HR MIN TEMP:  62; 6HR MAX TEMP:  65; 6HR PCP:  0.56;

ROCHESTER +    CLOUDY    64  64 100 SE8       29.83S
SOUTH BEND     CLOUDY    66  61  84 SE8       29.83S
6HR MIN TEMP:  66; 6HR MAX TEMP:  68; 6HR PCP: TRACE;

WARSAW +         N/A     63  61  94 SE5       29.84S

$$

INZ006>009-017-018-025>027-291300-
NORTHEAST INDIANA

CITY           SKY/WX    TMP DP  RH WIND       PRES   REMARKS
ANGOLA *+      CLOUDY    64  59  82 CALM      29.86S
AUBURN +       CLOUDY    63  59  88 CALM      29.87S
FORT WAYNE     RAIN      62  60  93 SE8       29.86S FOG
6HR MIN TEMP:  62; 6HR MAX TEMP:  66; 6HR PCP:  0.15;

HUNTINGTON +   LGT RAIN  62  60  96 SE8       29.84S
6HR MIN TEMP:  62; 6HR MAX TEMP:  66; 6HR PCP:  0.38;


$$

INZ028-029-035-036-043>045-051>053-291300-
WEST CENTRAL INDIANA

CITY           SKY/WX    TMP DP  RH WIND       PRES   REMARKS
CRAWFORDSVL +  CLOUDY    62  61  95 SE6       29.79R
6HR MIN TEMP:  60; 6HR MAX TEMP:  63;

GREENCASTLE +  CLOUDY    63  59  88 CALM      29.79S FOG
LAFAYETTE      PTSUNNY   64  62  93 E8        29.79R
6HR MIN TEMP:  63; 6HR MAX TEMP:  64; 6HR PCP:  0.13;

TERRE HAUTE    LGT RAIN  66  65  96 SE3       29.77R FOG
6HR MIN TEMP:  65; 6HR MAX TEMP:  66; 6HR PCP:  0.39;


$$

INZ030>032-037>040-046>048-054>057-064-065-291300-
CENTRAL INDIANA

CITY           SKY/WX    TMP DP  RH WIND       PRES   REMARKS
CP ATTERBURY + CLOUDY    63  61  94 S6        29.81R
COLUMBUS       CLOUDY    61  59  94 SE12      29.80F
FISHERS *+     CLOUDY    61  61 100 E3        29.82R
FRANKFORT +    CLOUDY   N/A N/A N/A E7        29.82S HAZE
GREENWOOD *+   CLOUDY    63  59  88 SE5       29.81R VSB 1
INDIANAPOLIS   DRIZZLE   63  60  90 SE9       29.79R FOG
6HR MIN TEMP:  63; 6HR MAX TEMP:  64; 6HR PCP:  0.15;

-EAGLE CREEK   LGT RAIN  63  61  93 SE7       29.80R
6HR MIN TEMP:  63; 6HR MAX TEMP:  66; 6HR PCP:  0.12;

KOKOMO *+      CLOUDY    63  59  88 SE12      29.82S
6HR MIN TEMP:  63; 6HR MAX TEMP:  64; 6HR PCP:  0.52;

MARION +       CLOUDY    62  61  96 SE9       29.84S FOG
MT COMFORT *+  PTSUNNY   61 N/A N/A SE8       29.82R
SHELBYVILLE    RAIN      63  60  90 SE7       29.80S FOG
6HR MIN TEMP:  63; 6HR MAX TEMP:  66; 6HR PCP:  0.64;

ZIONSVILLE +   CLOUDY    64  60  89 E7        29.82R FOG
6HR MIN TEMP:  63; 6HR MAX TEMP:  67; 6HR PCP:  0.03;


$$

INZ033-034-041-042-049-050-058-059-291300-
EAST CENTRAL INDIANA

CITY           SKY/WX    TMP DP  RH WIND       PRES   REMARKS
MUNCIE         CLOUDY    62  60  93 SE10      29.84S
6HR MIN TEMP:  62; 6HR MAX TEMP:  67; 6HR PCP:  0.53;


$$

INZ060-061-067>069-081>083-085>088-291300-
SOUTHWEST INDIANA

CITY           SKY/WX    TMP DP  RH WIND       PRES   REMARKS
EVANSVILLE     MOSUNNY   70  66  87 SW13      29.81R
6HR MIN TEMP:  68; 6HR MAX TEMP:  70; 6HR PCP:  0.15;

HUNTINGBURG *+ MOSUNNY   68  63  83 S10       29.81R
6HR MIN TEMP:  64; 6HR MAX TEMP:  68; 6HR PCP:  0.45;

WASHINGTON +   CLOUDY    67  64  87 S9        29.78R
6HR MIN TEMP:  65; 6HR MAX TEMP:  67; 6HR PCP:  0.12;


$$

INZ062-063-066-070>080-084-089>092-291300-
SOUTH CENTRAL AND SOUTHEAST INDIANA

CITY           SKY/WX    TMP DP  RH WIND       PRES   REMARKS
BLOOMINGTON    CLOUDY    65  64  97 S6        29.79R
6HR MIN TEMP:  64; 6HR MAX TEMP:  65; 6HR PCP:  1.13;

MADISON *+     CLOUDY    63  59  88 S3        29.86S
NORTH VERNON + RAIN      63  63 100 SE7       29.83R
SEYMOUR +      CLOUDY    64  64 100 S6        29.80F

$$



USA.gov is the U.S. government's official web portal to all federal, state and local government web resources and services.